QPF
0.00 0.00 0.00 0.00 0.00 0.00 0.00 0.00 0.00 0.00 0.00 0.00 0.00 0.00 0.00 0.00 0.00 0.00 0.00 0.07 0.28 0.61 0.62 0.81 0.49 0.23 0.11 0.04 0.01 0.00 0.00 0.00 0.00 0.01 0.01 0.02 0.00 0.00 0.00 0.01 0.00 0.00 0.00
0.00 0.00 0.00 0.00 0.00 0.00 0.00 0.00 0.00 0.00 0.00 0.00 0.00 0.00 0.00 0.00 0.00 0.00 0.00 0.02 0.20 0.60 0.76 0.94 1.09 0.58 0.10 0.03 0.00 0.00 0.00 0.00 0.00 0.00 0.00 0.03 0.03 0.01 0.01 0.00 0.00 0.00 0.00
0.00 0.00 0.00 0.00 0.00 0.00 0.00 0.00 0.00 0.00 0.00 0.00 0.00 0.00 0.00 0.00 0.00 0.00 0.00 0.01 0.15 0.44 0.68 0.73 1.07 0.86 0.23 0.02 0.00 0.00 0.00 0.00 0.00 0.00 0.00 0.01 0.02 0.02 0.02 0.00 0.00 0.00 0.00
0.00 0.00 0.00 0.00 0.00 0.00 0.00 0.00 0.00 0.00 0.00 0.00 0.00 0.00 0.00 0.00 0.00 0.00 0.00 0.00 0.04 0.21 0.53 0.61 0.87 0.93 0.30 0.02 0.00 0.00 0.00 0.00 0.00 0.00 0.00 0.00 0.00 0.01 0.02 0.00 0.00 0.00 0.00
0.00 0.00 0.00 0.00 0.00 0.00 0.00 0.00 0.00 0.00 0.00 0.00 0.00 0.00 0.00 0.00 0.00 0.00 0.00 0.00 0.01 0.08 0.33 0.57 0.69 1.16 0.43 0.01 0.00 0.00 0.00 0.00 0.00 0.00 0.00 0.00 0.00 0.00 0.00 0.00 0.00 0.00 0.00
0.00 0.00 0.00 0.00 0.00 0.00 0.00 0.00 0.00 0.00 0.00 0.00 0.00 0.00 0.00 0.00 0.00 0.00 0.00 0.00 0.00 0.03 0.15 0.49 0.61 0.98 0.73 0.03 0.00 0.00 0.00 0.00 0.00 0.00 0.00 0.00 0.00 0.00 0.00 0.00 0.00 0.00 0.00
0.00 0.00 0.00 0.00 0.00 0.00 0.00 0.00 0.00 0.00 0.00 0.00 0.00 0.00 0.00 0.00 0.00 0.00 0.00 0.00 0.00 0.00 0.07 0.36 0.58 0.68 0.84 0.13 0.01 0.00 0.00 0.00 0.01 0.00 0.00 0.00 0.00 0.00 0.00 0.00 0.00 0.00 0.00
0.00 0.00 0.00 0.00 0.00 0.00 0.00 0.00 0.00 0.00 0.00 0.00 0.00 0.00 0.00 0.00 0.00 0.00 0.00 0.00 0.00 0.00 0.02 0.19 0.54 0.62 0.72 0.26 0.05 0.01 0.00 0.00 0.01 0.00 0.00 0.00 0.00 0.00 0.00 0.00 0.00 0.00 0.00
0.00 0.00 0.00 0.00 0.00 0.00 0.00 0.00 0.00 0.00 0.00 0.00 0.00 0.00 0.00 0.00 0.00 0.00 0.00 0.00 0.00 0.00 0.01 0.08 0.36 0.58 0.60 0.31 0.19 0.04 0.01 0.01 0.01 0.02 0.01 0.00 0.00 0.00 0.00 0.00 0.00 0.00 0.00
0.00 0.00 0.00 0.00 0.00 0.00 0.00 0.00 0.00 0.00 0.00 0.00 0.00 0.00 0.00 0.00 0.00 0.00 0.00 0.00 0.00 0.00 0.00 0.04 0.23 0.53 0.50 0.31 0.31 0.07 0.02 0.01 0.01 0.01 0.02 0.00 0.00 0.00 0.00 0.00 0.00 0.00 0.00
0.00 0.00 0.00 0.00 0.00 0.00 0.00 0.00 0.00 0.00 0.00 0.00 0.00 0.00 0.00 0.00 0.00 0.00 0.00 0.00 0.00 0.00 0.00 0.02 0.14 0.47 0.41 0.30 0.35 0.08 0.02 0.02 0.01 0.01 0.01 0.00 0.00 0.00 0.00 0.00 0.00 0.00 0.00
0.00 0.00 0.00 0.00 0.00 0.00 0.00 0.00 0.00 0.00 0.00 0.00 0.00 0.00 0.00 0.00 0.00 0.00 0.00 0.00 0.00 0.00 0.00 0.01 0.07 0.32 0.32 0.26 0.30 0.08 0.01 0.02 0.01 0.01 0.00 0.00 0.00 0.00 0.00 0.00 0.00 0.00 0.00
0.00 0.00 0.00 0.00 0.01 0.01 0.01 0.00 0.00 0.00 0.00 0.00 0.00 0.00 0.00 0.00 0.00 0.00 0.00 0.00 0.00 0.00 0.00 0.00 0.03 0.16 0.25 0.23 0.26 0.08 0.01 0.04 0.01 0.00 0.00 0.00 0.00 0.00 0.00 0.00 0.00 0.00 0.00
0.00 0.00 0.01 0.01 0.00 0.01 0.00 0.00 0.01 0.00 0.00 0.00 0.00 0.00 0.00 0.00 0.00 0.00 0.00 0.00 0.00 0.00 0.00 0.00 0.01 0.06 0.15 0.21 0.22 0.08 0.00 0.07 0.04 0.00 0.00 0.00 0.00 0.00 0.00 0.00 0.00 0.00 0.00
0.00 0.00 0.01 0.00 0.00 0.00 0.00 0.01 0.01 0.01 0.00 0.00 0.00 0.00 0.00 0.00 0.00 0.00 0.00 0.00 0.00 0.00 0.00 0.01 0.02 0.04 0.09 0.15 0.21 0.05 0.00 0.05 0.17 0.01 0.00 0.00 0.00 0.00 0.00 0.00 0.00 0.00 0.00
0.01 0.01 0.00 0.00 0.00 0.00 0.01 0.02 0.01 0.01 0.01 0.01 0.00 0.00 0.00 0.00 0.00 0.00 0.00 0.00 0.00 0.00 0.00 0.01 0.03 0.05 0.06 0.08 0.09 0.05 0.00 0.02 0.21 0.05 0.00 0.00 0.00 0.00 0.00 0.00 0.00 0.00 0.00
0.02 0.02 0.03 0.01 0.00 0.00 0.02 0.03 0.02 0.02 0.02 0.01 0.00 0.00 0.00 0.00 0.00 0.00 0.00 0.00 0.00 0.00 0.00 0.01 0.03 0.06 0.07 0.07 0.02 0.05 0.01 0.01 0.11 0.09 0.00 0.00 0.00 0.00 0.00 0.00 0.00 0.00 0.00
0.08 0.09 0.06 0.04 0.02 0.01 0.01 0.02 0.03 0.05 0.04 0.02 0.00 0.00 0.00 0.00 0.00 0.00 0.00 0.00 0.00 0.00 0.00 0.02 0.03 0.05 0.11 0.07 0.01 0.01 0.01 0.00 0.09 0.07 0.03 0.00 0.00 0.00 0.00 0.00 0.00 0.00 0.00
0.11 0.10 0.07 0.07 0.04 0.02 0.02 0.05 0.04 0.05 0.04 0.02 0.01 0.00 0.00 0.00 0.00 0.00 0.00 0.00 0.00 0.00 0.00 0.02 0.04 0.05 0.11 0.07 0.01 0.00 0.01 0.01 0.04 0.09 0.04 0.01 0.00 0.00 0.00 0.00 0.00 0.00 0.00
0.10 0.10 0.12 0.09 0.03 0.01 0.03 0.04 0.02 0.03 0.01 0.00 0.00 0.00 0.00 0.00 0.00 0.00 0.00 0.00 0.00 0.00 0.01 0.03 0.05 0.09 0.10 0.06 0.00 0.01 0.01 0.03 0.02 0.03 0.04 0.02 0.00 0.00 0.00 0.00 0.00 0.00 0.00
0.08 0.09 0.11 0.12 0.04 0.04 0.05 0.03 0.02 0.04 0.01 0.00 0.00 0.00 0.00 0.00 0.00 0.00 0.00 0.00 0.00 0.01 0.02 0.04 0.07 0.10 0.08 0.04 0.00 0.00 0.01 0.02 0.01 0.01 0.01 0.01 0.01 0.01 0.00 0.00 0.00 0.00 0.00
0.07 0.14 0.15 0.09 0.05 0.07 0.13 0.07 0.03 0.03 0.00 0.00 0.00 0.00 0.00 0.00 0.00 0.01 0.00 0.00 0.00 0.02 0.04 0.05 0.09 0.12 0.06 0.07 0.00 0.00 0.00 0.00 0.01 0.00 0.00 0.00 0.01 0.01 0.00 0.00 0.00 0.00 0.00
0.05 0.16 0.16 0.10 0.07 0.04 0.09 0.12 0.03 0.01 0.00 0.00 0.00 0.00 0.00 0.00 0.01 0.01 0.00 0.00 0.01 0.02 0.06 0.08 0.12 0.09 0.03 0.02 0.00 0.00 0.00 0.00 0.00 0.00 0.00 0.00 0.00 0.01 0.00 0.00 0.00 0.00 0.00
0.02 0.15 0.18 0.14 0.09 0.08 0.06 0.10 0.06 0.00 0.00 0.00 0.00 0.00 0.00 0.00 0.00 0.00 0.00 0.00 0.02 0.04 0.06 0.10 0.11 0.07 0.03 0.01 0.00 0.00 0.00 0.00 0.01 0.02 0.01 0.01 0.03 0.01 0.01 0.00 0.00 0.00 0.00
0.00 0.07 0.23 0.22 0.16 0.16 0.13 0.07 0.05 0.03 0.00 0.00 0.00 0.00 0.00 0.00 0.00 0.00 0.00 0.00 0.03 0.06 0.06 0.09 0.10 0.04 0.02 0.01 0.02 0.02 0.00 0.00 0.01 0.02 0.02 0.01 0.06 0.04 0.02 0.00 0.00 0.00 0.00
0.00 0.00 0.11 0.23 0.23 0.21 0.19 0.12 0.07 0.03 0.02 0.00 0.00 0.00 0.00 0.00 0.00 0.00 0.00 0.00 0.03 0.07 0.11 0.14 0.11 0.03 0.02 0.03 0.03 0.05 0.02 0.01 0.00 0.00 0.01 0.01 0.01 0.02 0.02 0.01 0.00 0.00 0.00
MSLP
1024.00 1024.02 1023.95 1024.11 1024.06 1023.85 1023.74 1023.58 1023.22 1022.65 1022.43 1022.16 1021.77 1021.36 1020.79 1020.35 1020.43 1020.18 1018.16 1017.90 1017.65 1018.08 1018.22 1017.22 1016.49 1015.08 1014.60 1015.37 1016.56 1017.84 1019.45 1020.96 1021.65 1022.93 1025.20 1026.22 1026.44 1026.68 1026.97 1027.17 1027.36 1027.69 1028.09
1024.40 1024.27 1024.19 1024.08 1023.95 1023.74 1023.51 1023.24 1022.87 1022.39 1022.06 1021.85 1021.47 1021.11 1020.42 1019.80 1019.59 1019.55 1019.48 1019.01 1018.24 1017.11 1016.55 1016.83 1016.36 1015.81 1014.21 1015.07 1016.09 1017.16 1019.34 1020.37 1020.59 1021.85 1024.14 1026.17 1027.44 1027.62 1027.97 1027.88 1027.93 1028.01 1028.37
1024.58 1024.27 1024.00 1023.97 1023.77 1023.57 1023.25 1022.83 1022.50 1021.96 1021.59 1021.28 1021.00 1020.73 1020.23 1019.64 1019.05 1018.81 1018.59 1018.25 1017.48 1017.27 1017.66 1016.25 1015.89 1014.82 1014.88 1014.25 1015.15 1016.41 1017.55 1019.26 1020.57 1020.25 1021.60 1024.32 1025.78 1027.45 1028.65 1028.52 1028.51 1028.06 1028.61
1024.40 1024.10 1023.86 1023.64 1023.35 1022.83 1022.41 1022.13 1021.80 1021.46 1021.14 1020.82 1020.48 1020.34 1019.91 1019.44 1018.89 1018.43 1018.22 1017.88 1017.98 1017.04 1016.39 1016.14 1015.51 1014.79 1014.07 1013.17 1014.46 1015.85 1016.37 1017.64 1019.30 1020.90 1021.50 1022.12 1023.11 1025.03 1028.12 1028.90 1028.82 1028.53 1028.59
1024.30 1023.93 1023.52 1023.08 1022.61 1022.20 1021.87 1021.44 1021.17 1020.92 1020.58 1020.20 1019.89 1019.69 1019.36 1018.99 1018.52 1018.08 1017.81 1017.45 1017.04 1017.29 1016.14 1014.89 1014.18 1013.95 1014.61 1012.31 1013.73 1015.23 1015.97 1017.16 1017.63 1018.82 1020.93 1022.20 1023.39 1024.72 1025.42 1027.45 1028.80 1028.88 1028.88
1023.85 1023.32 1022.72 1022.12 1021.67 1021.38 1021.03 1020.69 1020.48 1020.18 1019.89 1019.59 1019.30 1019.04 1018.71 1018.47 1018.18 1017.80 1017.45 1017.01 1016.24 1015.69 1015.68 1014.14 1014.71 1014.11 1013.65 1012.20 1012.83 1014.24 1015.45 1016.56 1017.33 1018.21 1019.74 1020.69 1021.27 1023.44 1024.51 1026.21 1027.88 1028.47 1029.34
1023.41 1022.33 1021.53 1021.21 1020.93 1020.63 1020.46 1020.14 1019.54 1019.16 1018.93 1018.75 1018.40 1017.98 1017.78 1017.74 1017.34 1017.14 1016.94 1016.70 1016.22 1015.48 1014.24 1014.83 1014.42 1013.55 1013.10 1012.56 1012.16 1013.64 1014.70 1015.83 1016.80 1017.51 1019.25 1020.32 1021.37 1022.66 1023.82 1025.16 1027.07 1028.18 1029.40
1022.55 1021.73 1021.06 1020.38 1019.80 1019.46 1019.34 1019.13 1018.80 1018.37 1017.99 1017.62 1017.31 1017.04 1016.76 1016.67 1016.30 1016.16 1016.07 1015.99 1015.83 1015.79 1015.91 1015.29 1014.43 1013.20 1013.17 1012.27 1011.91 1013.01 1014.12 1015.19 1016.37 1017.23 1018.67 1019.76 1021.17 1021.86 1022.81 1023.64 1025.20 1028.17 1029.39
1021.84 1020.99 1020.47 1020.01 1019.36 1018.85 1018.47 1018.08 1017.62 1017.21 1016.91 1016.41 1016.12 1015.79 1015.63 1015.33 1015.21 1015.12 1015.15 1015.09 1015.13 1014.73 1014.70 1014.65 1013.42 1013.00 1012.89 1011.88 1011.64 1012.16 1013.48 1014.66 1015.88 1017.16 1018.33 1019.31 1020.94 1021.56 1022.59 1023.49 1024.07 1024.30 1027.71
1021.60 1020.80 1019.94 1019.14 1018.41 1017.75 1017.01 1016.56 1016.15 1015.74 1015.46 1015.20 1015.03 1014.66 1014.26 1014.16 1014.08 1014.07 1014.08 1014.08 1014.18 1014.30 1013.45 1013.49 1013.08 1012.80 1012.05 1011.23 1011.09 1011.69 1012.87 1013.87 1015.39 1016.72 1018.00 1019.31 1020.52 1021.48 1022.32 1023.12 1024.01 1024.52 1025.49
1021.15 1020.07 1018.96 1018.31 1017.43 1016.45 1015.91 1015.46 1015.16 1014.63 1014.18 1013.85 1013.50 1013.50 1013.23 1013.02 1012.95 1012.89 1012.88 1013.16 1013.38 1013.40 1013.55 1012.97 1012.82 1012.71 1012.04 1010.76 1010.60 1011.18 1012.20 1013.34 1014.70 1016.20 1017.39 1018.79 1019.80 1020.99 1022.03 1022.98 1023.77 1024.60 1025.46
1020.56 1019.35 1018.41 1017.36 1016.43 1015.72 1015.23 1014.59 1013.79 1013.20 1012.81 1012.51 1012.08 1011.99 1011.89 1011.90 1011.84 1011.79 1011.91 1012.21 1012.41 1012.44 1012.42 1012.44 1012.35 1011.96 1011.53 1010.26 1010.02 1010.78 1011.68 1012.64 1014.14 1015.51 1016.89 1018.14 1019.55 1020.78 1021.51 1022.41 1023.23 1024.24 1025.02
1019.94 1018.88 1017.70 1016.58 1015.77 1015.13 1014.53 1013.68 1012.73 1011.87 1011.28 1010.91 1010.62 1010.52 1010.49 1010.49 1010.56 1010.65 1010.71 1010.87 1011.39 1011.59 1011.51 1011.66 1011.63 1011.17 1010.60 1009.83 1009.60 1010.36 1011.33 1012.24 1013.13 1014.70 1016.02 1017.35 1018.69 1020.24 1021.06 1021.97 1022.80 1023.92 1024.84
1019.46 1017.98 1016.70 1015.87 1015.19 1014.31 1013.48 1012.43 1011.53 1010.70 1009.87 1009.29 1008.97 1008.97 1008.95 1009.15 1009.38 1009.56 1009.50 1009.65 1010.24 1010.42 1010.45 1010.55 1010.40 1010.20 1009.67 1009.08 1008.71 1009.87 1011.00 1011.88 1012.65 1013.82 1015.18 1016.41 1017.52 1018.71 1019.95 1021.15 1021.99 1023.46 1024.74
1018.59 1017.25 1015.86 1014.70 1013.96 1013.04 1012.15 1011.17 1010.13 1009.22 1008.39 1007.62 1007.49 1007.43 1007.54 1007.87 1008.15 1008.45 1008.38 1008.64 1009.05 1009.20 1009.61 1009.59 1009.52 1009.44 1009.17 1008.27 1007.99 1009.22 1010.50 1011.54 1012.79 1013.68 1014.81 1015.68 1016.66 1017.67 1018.41 1019.81 1021.24 1022.69 1024.12
1018.03 1016.39 1015.03 1013.92 1012.84 1011.86 1010.69 1009.47 1008.36 1007.53 1006.97 1006.09 1005.63 1005.90 1006.17 1006.53 1006.76 1007.19 1007.48 1007.64 1007.92 1008.22 1008.63 1008.64 1008.40 1008.79 1008.24 1007.79 1007.62 1008.44 1009.96 1011.32 1012.60 1013.46 1014.50 1015.61 1016.80 1017.66 1018.14 1019.06 1020.02 1020.81 1022.37
1017.67 1015.99 1014.72 1013.06 1011.73 1010.62 1009.28 1007.78 1006.59 1005.58 1004.91 1004.40 1003.93 1004.34 1004.64 1005.01 1005.37 1006.03 1006.60 1006.80 1006.78 1007.29 1007.40 1007.39 1007.60 1007.44 1007.06 1007.73 1007.16 1007.93 1009.23 1010.74 1012.03 1012.89 1014.07 1015.21 1016.49 1017.80 1018.35 1019.19 1020.02 1020.74 1021.41
1017.52 1015.77 1014.18 1012.27 1011.06 1009.43 1008.00 1006.36 1004.79 1003.37 1002.28 1001.95 1002.14 1002.61 1003.17 1003.86 1004.42 1004.88 1005.34 1006.15 1006.19 1006.18 1006.66 1006.85 1006.76 1007.26 1007.05 1006.93 1006.45 1007.70 1008.40 1010.10 1011.36 1012.36 1013.59 1014.55 1015.60 1017.02 1017.96 1019.09 1020.16 1020.98 1021.78
1017.55 1015.90 1014.28 1012.33 1010.36 1008.62 1006.91 1005.15 1002.98 1001.40 999.61 1000.02 1000.58 1001.31 1001.92 1002.68 1003.21 1003.65 1004.19 1005.12 1005.48 1005.64 1005.77 1006.13 1006.59 1006.79 1006.48 1005.76 1005.86 1007.00 1008.16 1009.96 1011.22 1011.88 1013.14 1014.13 1015.16 1016.03 1017.15 1018.31 1019.60 1020.99 1021.92
1017.02 1015.12 1013.30 1011.73 1009.99 1007.73 1005.90 1003.87 1001.94 1000.49 999.52 999.56 1000.06 1000.62 1001.23 1001.82 1002.35 1002.98 1003.55 1004.16 1004.72 1005.10 1005.20 1005.23 1005.60 1005.66 1005.32 1005.22 1005.36 1006.19 1007.96 1009.50 1010.90 1012.05 1012.61 1013.57 1014.40 1015.41 1016.84 1017.49 1018.50 1020.21 1021.29
1016.41 1014.71 1012.94 1011.21 1009.33 1007.13 1004.98 1003.01 1001.37 1000.06 999.73 999.73 999.93 1000.35 1000.86 1001.37 1001.98 1002.48 1003.06 1003.42 1003.96 1004.41 1004.39 1004.77 1004.85 1004.85 1004.66 1004.45 1004.93 1005.94 1006.97 1008.02 1009.92 1010.88 1012.05 1013.32 1013.99 1014.85 1016.07 1017.04 1017.41 1018.13 1019.74
1015.36 1014.09 1012.35 1010.47 1008.74 1007.01 1004.86 1002.60 1000.87 999.66 999.60 999.63 999.80 1000.07 1000.54 1000.95 1001.41 1001.87 1002.13 1002.87 1003.42 1003.63 1003.36 1003.80 1004.13 1004.18 1003.91 1004.17 1004.69 1005.71 1006.35 1007.51 1008.67 1010.01 1011.12 1012.12 1013.32 1014.35 1015.35 1016.69 1017.76 1018.14 1019.64
1016.39 1014.58 1012.85 1010.54 1008.45 1006.67 1005.01 1003.13 1000.91 999.60 999.52 999.64 999.76 999.93 1000.26 1000.60 1000.86 1001.05 1001.48 1002.07 1002.44 1002.92 1003.29 1003.39 1003.38 1002.86 1002.47 1003.39 1004.35 1005.14 1005.97 1007.38 1008.71 1009.64 1009.82 1010.96 1012.45 1013.50 1015.10 1016.34 1017.49 1018.43 1019.39
1016.67 1014.91 1012.83 1010.86 1008.79 1006.89 1005.23 1003.84 1001.90 1000.41 1000.05 999.96 999.81 999.82 1000.02 1000.35 1000.37 1000.76 1001.14 1001.40 1001.81 1001.98 1001.99 1002.52 1002.18 1002.34 1002.19 1003.05 1004.11 1004.95 1005.90 1007.23 1008.57 1009.47 1010.11 1011.17 1012.41 1013.42 1014.37 1016.37 1017.55 1018.25 1018.78
1017.17 1015.69 1013.46 1011.69 1009.67 1007.78 1005.96 1004.43 1002.69 1001.33 1000.39 1000.09 999.93 999.83 999.99 1000.03 1000.38 1000.48 1000.59 1000.93 1001.05 1001.44 1001.67 1002.51 1001.91 1001.58 1001.74 1002.29 1003.01 1003.60 1005.09 1006.69 1008.07 1009.45 1010.67 1011.95 1013.31 1014.39 1015.27 1016.30 1017.11 1018.01 1018.82
1017.84 1015.61 1014.35 1012.18 1009.94 1008.21 1006.55 1004.96 1003.39 1002.18 1001.04 1000.45 1000.28 1000.03 1000.12 1000.22 1000.39 1000.52 1000.69 1000.65 1000.79 1000.76 1001.94 1002.33 1001.72 1001.38 1001.72 1002.64 1003.50 1004.53 1005.98 1006.93 1008.05 1009.28 1010.46 1011.65 1012.67 1013.75 1014.54 1015.55 1016.81 1017.63 1018.40
Thickness
5399 5395 5393 5388 5386 5384 5382 5381 5382 5387 5390 5396 5404 5415 5432 5451 5467 5487 5515 5532 5548 5558 5564 5582 5600 5616 5630 5631 5630 5629 5624 5620 5619 5614 5602 5600 5605 5609 5612 5615 5618 5619 5620
5389 5388 5386 5383 5378 5377 5376 5376 5378 5381 5385 5389 5396 5405 5420 5439 5458 5474 5490 5510 5532 5552 5566 5571 5587 5600 5625 5625 5626 5628 5618 5615 5621 5619 5608 5596 5592 5597 5601 5607 5611 5614 5615
5382 5381 5378 5374 5371 5369 5370 5371 5372 5377 5380 5383 5388 5396 5408 5424 5445 5463 5482 5501 5523 5540 5550 5567 5578 5599 5607 5623 5628 5627 5626 5618 5614 5629 5628 5609 5608 5595 5593 5599 5604 5610 5610
5377 5375 5372 5369 5367 5369 5367 5367 5368 5370 5374 5376 5381 5387 5397 5411 5429 5448 5470 5488 5500 5523 5545 5557 5569 5583 5602 5622 5625 5625 5629 5625 5621 5616 5620 5620 5618 5616 5595 5593 5598 5604 5607
5367 5365 5362 5362 5361 5362 5361 5362 5361 5362 5365 5371 5373 5379 5390 5402 5414 5432 5454 5474 5496 5506 5535 5555 5572 5584 5587 5621 5621 5621 5623 5623 5628 5631 5620 5614 5607 5607 5616 5599 5592 5596 5601
5363 5362 5362 5361 5359 5358 5356 5356 5354 5355 5357 5361 5366 5370 5379 5390 5402 5417 5440 5459 5485 5506 5524 5550 5550 5568 5584 5614 5618 5616 5622 5621 5623 5627 5621 5620 5625 5612 5616 5609 5598 5596 5592
5359 5362 5361 5357 5353 5351 5347 5346 5349 5348 5348 5352 5358 5365 5370 5379 5395 5406 5426 5446 5469 5494 5525 5533 5543 5562 5577 5598 5612 5611 5617 5618 5619 5626 5620 5617 5615 5614 5614 5607 5596 5594 5588
5359 5357 5353 5350 5349 5345 5340 5337 5337 5340 5339 5341 5346 5354 5363 5369 5385 5399 5414 5436 5455 5474 5492 5512 5535 5553 5564 5589 5605 5608 5613 5615 5616 5619 5617 5615 5612 5616 5614 5616 5609 5588 5584
5353 5350 5345 5341 5338 5333 5329 5326 5325 5325 5327 5331 5336 5343 5352 5363 5375 5389 5403 5427 5444 5467 5485 5504 5530 5546 5554 5581 5596 5605 5606 5608 5611 5612 5611 5613 5606 5612 5609 5611 5613 5619 5593
5344 5338 5334 5328 5325 5319 5316 5311 5311 5312 5313 5316 5321 5330 5342 5354 5365 5379 5395 5418 5436 5450 5484 5505 5520 5536 5556 5577 5593 5601 5603 5606 5606 5606 5604 5605 5605 5605 5608 5609 5609 5612 5608
5332 5328 5326 5318 5312 5306 5297 5289 5286 5291 5294 5297 5305 5316 5328 5343 5355 5370 5387 5406 5428 5445 5468 5495 5509 5524 5544 5572 5587 5597 5601 5603 5603 5601 5603 5602 5604 5602 5604 5605 5607 5605 5603
5325 5322 5313 5306 5297 5286 5275 5271 5273 5276 5278 5282 5291 5304 5314 5329 5346 5360 5377 5394 5418 5438 5462 5480 5498 5519 5536 5565 5583 5590 5595 5601 5600 5599 5601 5601 5599 5597 5603 5604 5605 5602 5601
5317 5310 5302 5294 5282 5272 5263 5257 5256 5257 5261 5269 5279 5291 5303 5317 5335 5350 5367 5388 5410 5430 5456 5471 5497 5517 5535 5560 5578 5586 5591 5598 5601 5600 5603 5604 5601 5596 5601 5601 5602 5599 5597
5308 5305 5297 5282 5269 5259 5249 5244 5240 5242 5248 5256 5265 5277 5291 5305 5323 5339 5359 5381 5404 5425 5450 5472 5496 5515 5533 5560 5577 5580 5584 5592 5599 5602 5603 5604 5605 5605 5603 5600 5601 5595 5591
5309 5301 5291 5278 5264 5253 5244 5235 5236 5240 5243 5250 5256 5267 5280 5295 5314 5332 5351 5373 5398 5422 5440 5466 5492 5511 5530 5559 5576 5579 5581 5587 5590 5597 5599 5603 5604 5605 5607 5603 5600 5594 5589
5307 5300 5286 5272 5262 5251 5242 5237 5238 5240 5241 5248 5257 5264 5276 5292 5311 5328 5344 5367 5392 5415 5436 5466 5493 5508 5532 5556 5573 5581 5582 5582 5587 5590 5596 5596 5593 5596 5602 5604 5602 5602 5595
5296 5290 5276 5269 5261 5252 5243 5242 5243 5246 5248 5252 5259 5269 5281 5296 5312 5326 5340 5362 5392 5411 5440 5471 5491 5517 5539 5547 5569 5579 5582 5582 5585 5588 5592 5592 5591 5587 5594 5596 5595 5596 5597
5287 5284 5274 5270 5259 5253 5245 5245 5249 5255 5260 5261 5266 5279 5291 5301 5314 5329 5344 5358 5384 5416 5443 5470 5495 5510 5530 5546 5569 5574 5584 5581 5582 5586 5588 5591 5592 5589 5591 5589 5587 5587 5588
5278 5274 5265 5263 5258 5252 5249 5249 5261 5268 5282 5274 5276 5288 5303 5312 5324 5337 5351 5364 5385 5412 5445 5471 5488 5510 5529 5551 5568 5574 5578 5576 5576 5582 5584 5587 5588 5590 5589 5587 5584 5580 5579
5284 5284 5277 5268 5261 5260 5254 5259 5268 5276 5284 5284 5284 5297 5311 5322 5332 5342 5353 5369 5390 5414 5445 5470 5494 5514 5533 5549 5565 5575 5574 5571 5571 5573 5580 5583 5587 5588 5584 5589 5587 5580 5578
5290 5290 5280 5276 5271 5270 5269 5269 5274 5285 5287 5291 5296 5308 5319 5328 5336 5346 5356 5373 5390 5413 5446 5467 5493 5514 5533 5550 5562 5570 5576 5580 5573 5578 5579 5579 5583 5586 5584 5586 5589 5592 5580
5309 5301 5295 5289 5282 5278 5279 5283 5291 5301 5302 5304 5309 5319 5327 5336 5340 5351 5365 5374 5391 5415 5449 5471 5493 5513 5533 5547 5559 5567 5577 5579 5580 5579 5582 5585 5582 5583 5584 5582 5580 5581 5573
5300 5297 5296 5296 5294 5292 5290 5294 5308 5319 5318 5318 5321 5327 5334 5341 5349 5360 5371 5382 5398 5420 5446 5470 5494 5522 5544 5551 5558 5568 5572 5572 5573 5573 5584 5587 5582 5581 5578 5576 5573 5570 5566
5307 5303 5305 5306 5302 5301 5301 5301 5309 5318 5320 5322 5329 5336 5343 5349 5358 5366 5377 5391 5408 5432 5458 5478 5504 5525 5544 5550 5556 5562 5567 5566 5564 5565 5572 5574 5571 5573 5574 5564 5562 5562 5564
5310 5305 5308 5309 5307 5305 5305 5306 5312 5319 5327 5328 5333 5342 5347 5354 5359 5371 5388 5403 5423 5442 5465 5478 5508 5532 5547 5558 5569 5578 5574 5567 5563 5560 5557 5555 5552 5550 5554 5555 5557 5555 5556
5311 5315 5312 5315 5320 5317 5317 5315 5318 5321 5331 5338 5337 5342 5348 5354 5364 5378 5390 5405 5427 5449 5462 5480 5509 5532 5545 5550 5556 5557 5553 5555 5555 5551 5550 5552 5553 5553 5554 5556 5554 5552 5553